Location: Bishopstone
(51.0167°N, 1.9000°W)
Time: 09:19:44
(UTC+00:00)

CARTOSAT-1 - Pass Details

Date: 16 September 2019
Orbit: 616 x 619 km, 97.8° (Epoch: 18 October)

Event Time Altitude Azimuth Distance (km) Brightness Sun altitude
Exits shadow 21:29:04 43° 8° (N) 879 4.5 -27.3°
Drops below altitude 10° 21:32:07 10° 351° (N) 1,999 6.8 -27.7°
Sets 21:34:20 0° 349° (NNW) 2,909 7.9 -27.9°
